Time,TemperatureF,DewpointF,PressureIn,WindDirection,WindDirectionDegrees,WindSpeedMPH,WindSpeedGustMPH,Humidity,HourlyPrecipIn,Conditions,Clouds,dailyrainin,SoftwareType,DateUTC
2013-03-13 00:02:00,36.0,26.0,-100.00,SSE,167,2.0,4.0,66,0.00,,,-99.99,,2013-03-13 06:02:00,
2013-03-13 00:12:00,36.0,26.0,-100.00,SSE,167,2.0,4.0,66,0.00,,,-99.99,,2013-03-13 06:12:00,
2013-03-13 00:22:00,35.0,26.0,-100.00,South,181,2.0,3.0,70,0.00,,,-99.99,,2013-03-13 06:22:00,
2013-03-13 00:32:00,35.0,26.0,-100.00,South,181,2.0,3.0,70,0.00,,,-99.99,,2013-03-13 06:32:00,
2013-03-13 00:42:00,35.0,26.0,-100.00,South,182,3.0,4.0,71,0.00,,,-99.99,,2013-03-13 06:42:00,
2013-03-13 00:52:00,35.0,26.0,-100.00,South,182,3.0,4.0,71,0.00,,,-99.99,,2013-03-13 06:52:00,
2013-03-13 01:02:00,35.0,26.0,-100.00,South,182,3.0,4.0,71,0.00,,,-99.99,,2013-03-13 07:02:00,
2013-03-13 01:12:00,35.0,26.0,-100.00,SSW,196,2.0,3.0,72,0.00,,,-99.99,,2013-03-13 07:12:00,
2013-03-13 01:22:00,35.0,26.0,-100.00,SSW,196,2.0,3.0,72,0.00,,,-99.99,,2013-03-13 07:22:00,
2013-03-13 01:32:00,35.0,26.0,-100.00,SSW,196,2.0,3.0,72,0.00,,,-99.99,,2013-03-13 07:32:00,
2013-03-13 01:42:00,35.0,26.0,-100.00,SE,140,4.0,5.0,69,0.00,,,-99.99,,2013-03-13 07:42:00,
2013-03-13 01:52:00,34.0,26.0,-100.00,SE,145,2.0,4.0,72,0.00,,,-99.99,,2013-03-13 07:52:00,
2013-03-13 02:03:00,34.0,26.0,-100.00,SE,145,2.0,4.0,72,0.00,,,-99.99,,2013-03-13 08:03:00,
2013-03-13 02:12:00,34.0,26.0,-100.00,SE,145,2.0,4.0,72,0.00,,,-99.99,,2013-03-13 08:12:00,
2013-03-13 02:22:00,33.0,26.0,-100.00,SE,138,3.0,5.0,74,0.00,,,-99.99,,2013-03-13 08:22:00,
2013-03-13 02:32:00,33.0,26.0,-100.00,SE,138,3.0,5.0,74,0.00,,,-99.99,,2013-03-13 08:32:00,
2013-03-13 02:42:00,33.0,26.0,-100.00,SE,140,3.0,4.0,74,0.00,,,-99.99,,2013-03-13 08:42:00,
2013-03-13 02:53:00,31.0,26.0,-100.00,SSE,151,3.0,4.0,78,0.00,,,-99.99,,2013-03-13 08:53:00,
2013-03-13 03:02:00,31.0,26.0,-100.00,SSE,151,3.0,4.0,78,0.00,,,-99.99,,2013-03-13 09:02:00,
2013-03-13 03:12:00,31.0,26.0,-100.00,SSE,151,3.0,4.0,78,0.00,,,-99.99,,2013-03-13 09:12:00,
2013-03-13 03:22:00,32.0,26.0,-100.00,SE,131,3.0,4.0,78,0.00,,,-99.99,,2013-03-13 09:22:00,
2013-03-13 03:32:00,32.0,26.0,-100.00,SE,131,3.0,4.0,78,0.00,,,-99.99,,2013-03-13 09:32:00,
2013-03-13 03:42:00,29.0,25.0,-100.00,SSE,168,2.0,2.0,82,0.00,,,-99.99,,2013-03-13 09:42:00,
2013-03-13 03:52:00,29.0,25.0,-100.00,SSE,168,2.0,2.0,82,0.00,,,-99.99,,2013-03-13 09:52:00,
2013-03-13 04:01:00,29.0,25.0,-100.00,SSE,168,2.0,2.0,82,0.00,,,-99.99,,2013-03-13 10:01:00,
2013-03-13 04:11:00,30.0,26.0,-100.00,SSE,152,2.0,3.0,84,0.00,,,-99.99,,2013-03-13 10:11:00,
2013-03-13 04:22:00,30.0,26.0,-100.00,SSE,152,2.0,3.0,84,0.00,,,-99.99,,2013-03-13 10:22:00,
2013-03-13 04:32:00,30.0,26.0,-100.00,SSE,152,2.0,3.0,84,0.00,,,-99.99,,2013-03-13 10:32:00,
2013-03-13 04:42:00,32.0,26.0,-100.00,SSE,157,3.0,5.0,80,0.00,,,-99.99,,2013-03-13 10:42:00,
2013-03-13 04:52:00,32.0,26.0,-100.00,SSE,157,3.0,5.0,80,0.00,,,-99.99,,2013-03-13 10:52:00,
2013-03-13 05:02:00,32.0,26.0,-100.00,SSE,157,3.0,5.0,80,0.00,,,-99.99,,2013-03-13 11:02:00,
2013-03-13 05:12:00,31.0,26.0,-100.00,SSE,162,4.0,7.0,81,0.00,,,-99.99,,2013-03-13 11:12:00,
2013-03-13 05:22:00,31.0,27.0,-100.00,SE,133,4.0,6.0,81,0.00,,,-99.99,,2013-03-13 11:22:00,
2013-03-13 05:32:00,31.0,27.0,-100.00,SE,133,4.0,6.0,81,0.00,,,-99.99,,2013-03-13 11:32:00,
2013-03-13 05:42:00,33.0,27.0,-100.00,ESE,123,6.0,7.0,78,0.00,,,-99.99,,2013-03-13 11:42:00,
2013-03-13 05:52:00,33.0,27.0,-100.00,ESE,123,6.0,7.0,78,0.00,,,-99.99,,2013-03-13 11:52:00,
2013-03-13 06:02:00,33.0,27.0,-100.00,ESE,123,6.0,7.0,78,0.00,,,-99.99,,2013-03-13 12:02:00,
2013-03-13 06:12:00,32.0,27.0,-100.00,SE,133,6.0,8.0,80,0.00,,,-99.99,,2013-03-13 12:12:00,
2013-03-13 06:22:00,32.0,27.0,-100.00,SE,133,6.0,8.0,80,0.00,,,-99.99,,2013-03-13 12:22:00,
2013-03-13 06:32:00,32.0,27.0,-100.00,SE,133,6.0,8.0,80,0.00,,,-99.99,,2013-03-13 12:32:00,
2013-03-13 06:42:00,31.0,26.0,-100.00,SE,128,4.0,4.0,81,0.00,,,-99.99,,2013-03-13 12:42:00,
2013-03-13 06:53:00,31.0,26.0,-100.00,SE,128,4.0,4.0,81,0.00,,,-99.99,,2013-03-13 12:53:00,
2013-03-13 07:02:00,31.0,26.0,-100.00,SE,128,4.0,4.0,81,0.00,,,-99.99,,2013-03-13 13:02:00,
2013-03-13 07:11:00,32.0,27.0,-100.00,SSE,147,4.0,5.0,81,0.00,,,-99.99,,2013-03-13 13:11:00,
2013-03-13 07:22:00,32.0,27.0,-100.00,SSE,147,4.0,5.0,81,0.00,,,-99.99,,2013-03-13 13:22:00,
2013-03-13 07:32:00,32.0,27.0,-100.00,SSE,147,4.0,5.0,81,0.00,,,-99.99,,2013-03-13 13:32:00,
2013-03-13 07:42:00,32.0,27.0,-100.00,SE,144,4.0,5.0,79,0.00,,,-99.99,,2013-03-13 13:42:00,
2013-03-13 07:52:00,32.0,27.0,-100.00,SE,143,4.0,5.0,80,0.00,,,-99.99,,2013-03-13 13:52:00,
2013-03-13 08:02:00,32.0,27.0,-100.00,SE,143,4.0,5.0,80,0.00,,,-99.99,,2013-03-13 14:02:00,
2013-03-13 08:12:00,31.0,26.0,-100.00,SE,134,4.0,5.0,81,0.00,,,-99.99,,2013-03-13 14:12:00,
2013-03-13 08:21:00,31.0,26.0,-100.00,SE,134,4.0,5.0,81,0.00,,,-99.99,,2013-03-13 14:21:00,
2013-03-13 08:33:00,31.0,26.0,-100.00,SE,134,4.0,5.0,81,0.00,,,-99.99,,2013-03-13 14:33:00,
2013-03-13 08:42:00,32.0,27.0,-100.00,SE,134,4.0,5.0,82,0.00,,,-99.99,,2013-03-13 14:42:00,
2013-03-13 08:52:00,32.0,27.0,-100.00,SE,134,4.0,5.0,82,0.00,,,-99.99,,2013-03-13 14:52:00,
2013-03-13 09:02:00,32.0,27.0,-100.00,SE,134,4.0,5.0,82,0.00,,,-99.99,,2013-03-13 15:02:00,
2013-03-13 09:11:00,32.0,27.0,-100.00,SE,138,5.0,6.0,81,0.00,,,-99.99,,2013-03-13 15:11:00,
2013-03-13 09:22:00,32.0,27.0,-100.00,SE,140,4.0,5.0,80,0.00,,,-99.99,,2013-03-13 15:22:00,
2013-03-13 09:32:00,32.0,27.0,-100.00,SE,140,4.0,5.0,80,0.00,,,-99.99,,2013-03-13 15:32:00,
2013-03-13 09:42:00,34.0,27.0,-100.00,SE,137,5.0,7.0,76,0.00,,,-99.99,,2013-03-13 15:42:00,
2013-03-13 09:52:00,35.0,27.0,-100.00,SSE,147,5.0,8.0,72,0.00,,,-99.99,,2013-03-13 15:52:00,
2013-03-13 10:02:00,35.0,27.0,-100.00,SSE,147,5.0,8.0,72,0.00,,,-99.99,,2013-03-13 16:02:00,
2013-03-13 10:12:00,36.0,27.0,-100.00,SE,138,6.0,10.0,71,0.00,,,-99.99,,2013-03-13 16:12:00,
2013-03-13 10:22:00,36.0,27.0,-100.00,SE,138,6.0,10.0,71,0.00,,,-99.99,,2013-03-13 16:22:00,
2013-03-13 10:32:00,36.0,27.0,-100.00,SE,138,6.0,10.0,71,0.00,,,-99.99,,2013-03-13 16:32:00,
2013-03-13 10:42:00,38.0,28.0,-100.00,SSE,152,6.0,8.0,66,0.00,,,-99.99,,2013-03-13 16:42:00,
2013-03-13 10:52:00,38.0,28.0,-100.00,SSE,152,6.0,8.0,66,0.00,,,-99.99,,2013-03-13 16:52:00,
2013-03-13 11:02:00,38.0,28.0,-100.00,SSE,152,6.0,8.0,66,0.00,,,-99.99,,2013-03-13 17:02:00,
2013-03-13 11:11:00,40.0,27.0,-100.00,SSE,154,6.0,9.0,61,0.00,,,-99.99,,2013-03-13 17:11:00,
2013-03-13 11:22:00,40.0,27.0,-100.00,SSE,154,6.0,9.0,61,0.00,,,-99.99,,2013-03-13 17:22:00,
2013-03-13 11:32:00,40.0,27.0,-100.00,SSE,154,6.0,9.0,61,0.00,,,-99.99,,2013-03-13 17:32:00,
2013-03-13 11:42:00,41.0,27.0,-100.00,SSE,151,6.0,11.0,58,0.00,,,-99.99,,2013-03-13 17:42:00,
2013-03-13 11:53:00,41.0,27.0,-100.00,SSE,151,6.0,11.0,58,0.00,,,-99.99,,2013-03-13 17:53:00,
2013-03-13 12:02:00,42.0,27.0,-100.00,SSE,150,6.0,9.0,55,0.00,,,-99.99,,2013-03-13 18:02:00,
2013-03-13 12:12:00,42.0,27.0,-100.00,SSE,150,6.0,9.0,55,0.00,,,-99.99,,2013-03-13 18:12:00,
2013-03-13 12:22:00,44.0,27.0,-100.00,SSE,164,6.0,8.0,50,0.00,,,-99.99,,2013-03-13 18:22:00,
2013-03-13 12:32:00,44.0,27.0,-100.00,SSE,164,6.0,8.0,50,0.00,,,-99.99,,2013-03-13 18:32:00,
2013-03-13 12:42:00,46.0,27.0,-100.00,SSE,161,3.0,6.0,47,0.00,,,-99.99,,2013-03-13 18:42:00,
2013-03-13 12:52:00,46.0,27.0,-100.00,SSE,161,3.0,6.0,47,0.00,,,-99.99,,2013-03-13 18:52:00,
2013-03-13 13:02:00,46.0,27.0,-100.00,SSE,161,3.0,6.0,47,0.00,,,-99.99,,2013-03-13 19:02:00,
2013-03-13 13:12:00,47.0,27.0,-100.00,SSE,155,4.0,6.0,45,0.00,,,-99.99,,2013-03-13 19:12:00,
2013-03-13 13:32:00,47.0,27.0,-100.00,SSE,165,4.0,6.0,46,0.00,,,-99.99,,2013-03-13 19:32:00,
2013-03-13 13:42:00,47.0,26.0,-100.00,South,188,3.0,5.0,44,0.00,,,-99.99,,2013-03-13 19:42:00,
2013-03-13 13:53:00,47.0,26.0,-100.00,South,188,3.0,5.0,44,0.00,,,-99.99,,2013-03-13 19:53:00,
2013-03-13 14:02:00,47.0,26.0,-100.00,South,188,3.0,5.0,44,0.00,,,-99.99,,2013-03-13 20:02:00,
2013-03-13 14:11:00,48.0,25.0,-100.00,SE,145,5.0,11.0,41,0.00,,,-99.99,,2013-03-13 20:11:00,
2013-03-13 14:22:00,49.0,25.0,-100.00,SSW,203,2.0,5.0,38,0.00,,,-99.99,,2013-03-13 20:22:00,
2013-03-13 14:32:00,49.0,25.0,-100.00,SSW,203,2.0,5.0,38,0.00,,,-99.99,,2013-03-13 20:32:00,
2013-03-13 14:41:00,49.0,24.0,-100.00,SW,236,2.0,3.0,37,0.00,,,-99.99,,2013-03-13 20:41:00,
2013-03-13 14:52:00,49.0,24.0,-100.00,SW,236,2.0,3.0,37,0.00,,,-99.99,,2013-03-13 20:52:00,
2013-03-13 15:01:00,49.0,24.0,-100.00,SW,236,2.0,3.0,37,0.00,,,-99.99,,2013-03-13 21:01:00,
2013-03-13 15:11:00,51.0,25.0,-100.00,SSE,148,2.0,4.0,37,0.00,,,-99.99,,2013-03-13 21:11:00,
2013-03-13 15:22:00,50.0,25.0,-100.00,SSE,161,2.0,4.0,38,0.00,,,-99.99,,2013-03-13 21:22:00,
2013-03-13 15:32:00,50.0,25.0,-100.00,SSE,161,2.0,4.0,38,0.00,,,-99.99,,2013-03-13 21:32:00,
2013-03-13 15:42:00,50.0,25.0,-100.00,SSE,161,2.0,4.0,38,0.00,,,-99.99,,2013-03-13 21:42:00,
2013-03-13 15:52:00,48.0,25.0,-100.00,SW,220,3.0,6.0,39,0.00,,,-99.99,,2013-03-13 21:52:00,
2013-03-13 16:01:00,48.0,25.0,-100.00,SW,220,3.0,6.0,39,0.00,,,-99.99,,2013-03-13 22:01:00,
2013-03-13 16:12:00,48.0,24.0,-100.00,SSE,155,4.0,7.0,40,0.00,,,-99.99,,2013-03-13 22:12:00,
2013-03-13 16:22:00,48.0,24.0,-100.00,SSE,155,4.0,7.0,40,0.00,,,-99.99,,2013-03-13 22:22:00,
2013-03-13 16:31:00,48.0,24.0,-100.00,SSE,155,4.0,7.0,40,0.00,,,-99.99,,2013-03-13 22:31:00,
2013-03-13 16:42:00,49.0,25.0,-100.00,WSW,241,3.0,6.0,38,0.00,,,-99.99,,2013-03-13 22:42:00,
2013-03-13 16:52:00,49.0,26.0,-100.00,WSW,251,3.0,7.0,40,0.00,,,-99.99,,2013-03-13 22:52:00,
2013-03-13 17:02:00,49.0,26.0,-100.00,WSW,251,3.0,7.0,40,0.00,,,-99.99,,2013-03-13 23:02:00,
2013-03-13 17:12:00,48.0,25.0,-100.00,SW,229,2.0,6.0,40,0.00,,,-99.99,,2013-03-13 23:12:00,
2013-03-13 17:22:00,48.0,26.0,-100.00,South,189,3.0,5.0,42,0.00,,,-99.99,,2013-03-13 23:22:00,
2013-03-13 17:32:00,48.0,26.0,-100.00,South,189,3.0,5.0,42,0.00,,,-99.99,,2013-03-13 23:32:00,
2013-03-13 17:42:00,48.0,28.0,-100.00,South,175,2.0,4.0,46,0.00,,,-99.99,,2013-03-13 23:42:00,
2013-03-13 17:52:00,48.0,27.0,-100.00,West,263,4.0,13.0,44,0.00,,,-99.99,,2013-03-13 23:52:00,
2013-03-13 18:02:00,48.0,27.0,-100.00,West,263,4.0,13.0,44,0.00,,,-99.99,,2013-03-14 00:02:00,
2013-03-13 18:12:00,49.0,28.0,-100.00,SSW,200,2.0,7.0,45,0.00,,,-99.99,,2013-03-14 00:12:00,
2013-03-13 18:22:00,47.0,28.0,-100.00,South,172,6.0,14.0,48,0.00,,,-99.99,,2013-03-14 00:22:00,
2013-03-13 18:32:00,47.0,28.0,-100.00,South,172,6.0,14.0,48,0.00,,,-99.99,,2013-03-14 00:32:00,
2013-03-13 18:42:00,45.0,29.0,-100.00,SSE,148,6.0,8.0,52,0.00,,,-99.99,,2013-03-14 00:42:00,
2013-03-13 18:52:00,45.0,29.0,-100.00,SSE,148,6.0,8.0,52,0.00,,,-99.99,,2013-03-14 00:52:00,
2013-03-13 19:02:00,45.0,29.0,-100.00,SSE,148,6.0,8.0,52,0.00,,,-99.99,,2013-03-14 01:02:00,
2013-03-13 19:12:00,44.0,29.0,-100.00,SSE,167,3.0,5.0,54,0.00,,,-99.99,,2013-03-14 01:12:00,
2013-03-13 19:22:00,44.0,29.0,-100.00,South,175,4.0,9.0,57,0.00,,,-99.99,,2013-03-14 01:22:00,
2013-03-13 19:32:00,44.0,29.0,-100.00,South,175,4.0,9.0,57,0.00,,,-99.99,,2013-03-14 01:32:00,
2013-03-13 19:42:00,44.0,29.0,-100.00,South,175,4.0,9.0,57,0.00,,,-99.99,,2013-03-14 01:42:00,
2013-03-13 19:52:00,43.0,29.0,-100.00,South,189,6.0,17.0,57,0.00,,,-99.99,,2013-03-14 01:52:00,
2013-03-13 20:02:00,43.0,29.0,-100.00,South,189,6.0,17.0,57,0.00,,,-99.99,,2013-03-14 02:02:00,
2013-03-13 20:12:00,43.0,30.0,-100.00,ESE,123,10.0,14.0,59,0.00,,,-99.99,,2013-03-14 02:12:00,
2013-03-13 20:22:00,43.0,30.0,-100.00,SSE,160,4.0,10.0,60,0.00,,,-99.99,,2013-03-14 02:22:00,
2013-03-13 20:32:00,43.0,30.0,-100.00,SSE,160,4.0,10.0,60,0.00,,,-99.99,,2013-03-14 02:32:00,
2013-03-13 20:42:00,43.0,30.0,-100.00,SSE,160,4.0,10.0,60,0.00,,,-99.99,,2013-03-14 02:42:00,
2013-03-13 21:01:00,42.0,29.0,-100.00,SSE,152,6.0,10.0,60,0.00,,,-99.99,,2013-03-14 03:01:00,
2013-03-13 21:12:00,42.0,29.0,-100.00,SSE,164,5.0,7.0,59,0.00,,,-99.99,,2013-03-14 03:12:00,
2013-03-13 21:22:00,42.0,28.0,-100.00,SSE,155,5.0,9.0,59,0.00,,,-99.99,,2013-03-14 03:22:00,
2013-03-13 21:30:00,41.0,28.0,-100.00,SE,136,3.0,4.0,61,0.00,,,-99.99,,2013-03-14 03:30:00,
2013-03-13 21:32:00,42.0,28.0,-100.00,SSE,155,5.0,9.0,59,0.00,,,-99.99,,2013-03-14 03:32:00,
2013-03-13 21:42:00,42.0,28.0,-100.00,SSE,147,2.0,3.0,57,0.00,,,-99.99,,2013-03-14 03:42:00,
2013-03-13 21:52:00,41.0,28.0,-100.00,SE,136,3.0,4.0,61,0.00,,,-99.99,,2013-03-14 03:52:00,
2013-03-13 22:12:00,41.0,28.0,-100.00,SE,136,3.0,4.0,61,0.00,,,-99.99,,2013-03-14 04:12:00,
2013-03-13 22:22:00,41.0,28.0,-100.00,SE,136,3.0,4.0,61,0.00,,,-99.99,,2013-03-14 04:22:00,
2013-03-13 22:42:00,40.0,29.0,-100.00,SE,124,2.0,3.0,64,0.00,,,-99.99,,2013-03-14 04:42:00,
2013-03-13 22:52:00,39.0,29.0,-100.00,SE,140,1.0,2.0,67,0.00,,,-99.99,,2013-03-14 04:52:00,
2013-03-13 23:02:00,39.0,29.0,-100.00,SE,140,1.0,2.0,67,0.00,,,-99.99,,2013-03-14 05:02:00,
2013-03-13 23:12:00,39.0,29.0,-100.00,SE,140,1.0,2.0,67,0.00,,,-99.99,,2013-03-14 05:12:00,
2013-03-13 23:22:00,39.0,28.0,-100.00,SSE,152,2.0,3.0,65,0.00,,,-99.99,,2013-03-14 05:22:00,
2013-03-13 23:32:00,39.0,28.0,-100.00,SSE,152,2.0,3.0,65,0.00,,,-99.99,,2013-03-14 05:32:00,
2013-03-13 23:42:00,38.0,28.0,-100.00,ESE,123,2.0,2.0,66,0.00,,,-99.99,,2013-03-14 05:42:00,
2013-03-13 23:53:00,36.0,28.0,-100.00,SSE,154,1.0,1.0,71,0.00,,,-99.99,,2013-03-14 05:53:00,